Madison, WI

11:19 AM CDT on March 25, 2017 (GMT -0500)
Dane County Regional-Truax

Weather History for KMSN - March, 2014

Change the Weather History Date:

Wednesday, March 12, 2014

  Actual Average Record
Temperature  
Mean Temperature 24 °F 32 °F  
Max Temperature 34 °F 41 °F 75 °F (1990)
Min Temperature 14 °F 23 °F -7 °F (1948)
Degree Days  
Heating Degree Days 41 33  
Month to date heating degree days 533 419  
Since 1 July heating degree days 6645 5905  
Cooling Degree Days 0 0  
Month to date cooling degree days 0 0  
Year to date cooling degree days 0 0  
Moisture  
Dew Point 18 °F    
Average Humidity 68    
Maximum Humidity 85    
Minimum Humidity 50    
Precipitation  
Precipitation T in 0.06 in 0.81 in (1923)
Month to date precipitation 0.48 0.73  
Year to date precipitation 2.37 3.41  
Snow  
Snow 0.30 in 0.20 in 12.90 in (1923)
Month to date snowfall 6.6 3.3  
Since 1 July snowfall 56.6 44.4  
Snow Depth 3.00 in    
Sea Level Pressure  
Sea Level Pressure 29.97 in    
Wind  
Wind Speed 10 mph (NE)    
Max Wind Speed 21 mph    
Max Gust Speed 25 mph    
Visibility 8 miles    
Events Snow    
T = Trace of Precipitation, MM = Missing Value Source: NWS Daily Summary

Daily Weather History Graph

Daily Weather History Graph

Search for Another Location

Airport or City:

Trip Planner

Search our weather history database for the weather conditions in past years. The results will help you decide how hot, cold, wet, or windy it might be!

Date:

Astronomy

Mar. 12, 2014 Rise Set
Actual Time 7:14 AM CDT 7:00 PM CDT
Civil Twilight 6:46 AM CDT 7:28 PM CDT
Nautical Twilight 6:13 AM CDT 8:01 PM CDT
Astronomical Twilight 5:40 AM CDT 8:34 PM CDT
Moon 3:26 PM CDT (3/12) 4:51 AM CDT (3/12)
Length of Visible Light 12h 42m
Length of Day
11h 45m
Waxing Gibbous, 85% of the Moon is Illuminated
Mar 12
Waxing Gibbous
Mar 16
Full
Mar 23
Last Quarter
Mar 30
New
Apr 7
First Quarter

Hourly Weather History & Observations

Time (CDT) Temp. Windchill Dew Point Humidity Pressure Visibility Wind Dir Wind Speed Gust Speed Precip Events Conditions
12:13 AM 35.1 °F 28.6 °F 30.0 °F 82% 29.81 in 10.0 mi ENE 8.1 mph - N/A   Overcast
12:51 AM 33.8 °F 24.3 °F 28.4 °F 81% 29.79 in 10.0 mi NE 13.8 mph - N/A   Overcast
12:53 AM 34.0 °F 25.0 °F 28.0 °F 79% 29.82 in 10.0 mi NE 12.7 mph - N/A   Overcast
1:53 AM 34.0 °F 25.0 °F 26.1 °F 73% 29.84 in 10.0 mi NE 12.7 mph - N/A   Overcast
2:43 AM 33.1 °F 21.9 °F 26.1 °F 75% 29.82 in 10.0 mi NE 18.4 mph 23.0 mph N/A   Overcast
2:53 AM 32.0 °F 21.6 °F 26.1 °F 79% 29.85 in 10.0 mi NE 15.0 mph - N/A   Overcast
3:53 AM 30.9 °F 23.5 °F 26.1 °F 82% 29.85 in 10.0 mi NNE 8.1 mph - N/A   Overcast
4:53 AM 30.9 °F 20.2 °F 24.1 °F 76% 29.86 in 10.0 mi NE 15.0 mph - N/A   Overcast
5:53 AM 30.0 °F 19.1 °F 23.0 °F 75% 29.88 in 10.0 mi NNE 15.0 mph - N/A   Overcast
6:03 AM 30.0 °F 21.1 °F 23.0 °F 75% 29.86 in 9.0 mi NE 10.4 mph - 0.00 in Snow Light Snow
6:53 AM 28.0 °F 16.5 °F 19.9 °F 72% 29.90 in 9.0 mi NNE 15.0 mph - 0.00 in Snow Light Snow
7:53 AM 26.1 °F 14.0 °F 17.1 °F 69% 29.94 in 9.0 mi NNE 15.0 mph - 0.00 in Snow Light Snow
8:27 AM 25.0 °F 11.3 °F 18.0 °F 75% 29.93 in 2.0 mi NNE 18.4 mph - 0.00 in Snow Light Snow
8:30 AM 25.0 °F 12.6 °F 18.0 °F 75% 29.93 in 2.0 mi NNE 15.0 mph - 0.00 in Snow Light Snow
8:37 AM 24.1 °F 11.5 °F 18.0 °F 77% 29.94 in 1.5 mi NNE 15.0 mph - 0.00 in Snow Light Snow
8:53 AM 24.1 °F 11.5 °F 18.0 °F 77% 29.97 in 1.0 mi NE 15.0 mph - 0.00 in Snow Light Snow
9:53 AM 24.1 °F 11.0 °F 19.0 °F 81% 29.99 in 1.0 mi NE 16.1 mph - 0.00 in Snow Light Snow
10:03 AM 24.1 °F 11.5 °F 19.0 °F 81% 29.96 in 1.0 mi NE 15.0 mph - 0.00 in Snow Light Snow
10:12 AM 25.0 °F 13.6 °F 19.9 °F 81% 29.96 in 2.0 mi NE 12.7 mph - 0.00 in Snow Light Snow
10:14 AM 25.0 °F 13.6 °F 19.0 °F 78% 29.96 in 3.0 mi NNE 12.7 mph - 0.00 in Snow Light Snow
10:31 AM 25.0 °F 13.6 °F 18.0 °F 75% 29.97 in 10.0 mi NNE 12.7 mph - 0.00 in   Mostly Cloudy
10:53 AM 25.0 °F 13.1 °F 18.0 °F 75% 30.01 in 10.0 mi NNE 13.8 mph - 0.00 in Snow Light Snow
11:41 AM 26.1 °F 13.1 °F 17.1 °F 69% 29.99 in 10.0 mi NNE 17.3 mph - 0.00 in   Mostly Cloudy
11:51 AM 26.6 °F 15.7 °F 17.6 °F 69% 29.99 in 10.0 mi North 12.7 mph - 0.00 in   Mostly Cloudy
11:53 AM 26.1 °F 14.5 °F 17.1 °F 69% 30.02 in 10.0 mi North 13.8 mph - 0.00 in   Mostly Cloudy
12:48 PM 28.4 °F 17.5 °F 17.6 °F 64% 30.00 in 9.0 mi NNE 13.8 mph - 0.00 in Snow Light Snow
12:53 PM 28.0 °F 18.1 °F 18.0 °F 66% 30.03 in 9.0 mi NNE 11.5 mph - 0.00 in Snow Light Snow
1:31 PM 26.1 °F 14.0 °F 17.1 °F 69% 29.99 in 2.5 mi NE 15.0 mph - 0.00 in Snow Light Snow
1:53 PM 25.0 °F 13.6 °F 16.0 °F 69% 30.03 in 2.5 mi NNE 12.7 mph - 0.00 in Snow Light Snow
2:11 PM 26.1 °F 15.0 °F 17.1 °F 69% 30.00 in 9.0 mi NNE 12.7 mph - 0.00 in   Overcast
2:53 PM 26.1 °F 16.8 °F 14.0 °F 60% 30.03 in 10.0 mi NE 9.2 mph - 0.00 in   Overcast
3:53 PM 27.0 °F 17.3 °F 12.0 °F 53% 30.05 in 10.0 mi NNE 10.4 mph - N/A   Mostly Cloudy
4:53 PM 26.1 °F 17.6 °F 10.0 °F 51% 30.06 in 10.0 mi ENE 8.1 mph - N/A   Scattered Clouds
5:53 PM 25.0 °F 18.1 °F 9.0 °F 51% 30.08 in 10.0 mi ENE 5.8 mph - N/A   Partly Cloudy
6:53 PM 21.9 °F 13.4 °F 10.0 °F 60% 30.10 in 10.0 mi East 6.9 mph - N/A   Partly Cloudy
7:53 PM 21.0 °F 14.6 °F 9.0 °F 60% 30.12 in 10.0 mi East 4.6 mph - N/A   Partly Cloudy
8:53 PM 21.0 °F 16.2 °F 8.1 °F 57% 30.13 in 10.0 mi ESE 3.5 mph - N/A   Clear
9:53 PM 19.0 °F 12.3 °F 9.0 °F 65% 30.14 in 10.0 mi SE 4.6 mph - N/A   Clear
10:53 PM 19.0 °F 13.9 °F 7.0 °F 59% 30.14 in 10.0 mi SSE 3.5 mph - N/A   Clear
11:53 PM 15.1 °F 9.4 °F 6.1 °F 68% 30.14 in 10.0 mi South 3.5 mph - N/A   Clear